Location: Bats
(43.6587°N, 0.4584°W)
Time: 09:45:41
(UTC+00:00)

ERS-1 - Pass Details

Date: 12 January 2026
Orbit: 738 x 782 km, 98.8° (Epoch: 11 February)

Event Time Altitude Azimuth Distance (km) Brightness Sun altitude
Rises 17:50:57 0° 164° (SSE) 3,158 7.7 -11.4°
Reaches altitude 10° 17:53:13 10° 165° (SSE) 2,241 7.0 -11.7°
Maximum altitude 17:58:09 89° 252° (WSW) 749 4.4 -12.6°
Drops below altitude 10° 18:03:10 10° 346° (NNW) 2,274 6.9 -13.5°
Sets 18:05:28 0° 346° (NNW) 3,209 7.7 -13.9°
